Вернуться в каталог

CZ-3B R/B

АктивенHEO
NORAD 45808·ROCKET BODY·🇨🇳 China

Запущен Jun 23, 2020 с Xichang Satellite Launch Center

Loading…

Ближайшие Пролёты (ближайшие 24 часа)

TLE

СвежийSource: Space-Track

Эпоха: Sep 14, 2026, 04:49 UTC

1 45808U 20040B   26257.20089970  .00011235  00000-0  78460-3 0  9998
2 45808  28.2919 278.2804 6455579 166.4181 226.6311  3.42045824 64224

Отслеживайте CZ-3B R/B в реальном времени с AllMySat

Download on the App Store